CZ-3C DEB, 48545

Orbit data source: Space-Track

CZ-3C DEB, 48545 is space debris in HEO originally from a launch on Sun, 31 Oct 2010 UTC launched from the Xichang Space Center, China (XSC). Debris objects in space refer to the collection of defunct objects orbiting the Earth. Examples of debris include non-operational satellites, rocket bodies, and fragments generated from explosions, collisions, or faulty payload assembly.

Loading next visibility...
Identifier
48545, 2010-057BQ
Orbit
HEO
Country
Flag of CNCN / PRC
Related business
Manufacturer
CALT
Mission
Spacecraft
Bus & Motor
Unknown
Mass
Unknown
Launch date (UTC)
2010-10-31 (15 years ago)
Launch vehicle
Unknown
Launch site
Xichang Space Center, China (XSC)
Object type
Payload
Rocket body
Debris
Shape & HBR
Unknown shape, 0.2 m
Radar Cross Section
Medium (>0.1 m² and <1 m²)

Expand to show TLE details & history
Last TLE update: 5 days ago

TLE from 5 days ago
0 CZ-3C DEB
1 48545U 10057BQ  25296.95505772  .00027005  00000-0  79781-2 0  9991
2 48545  17.9847 193.8291 5650695 161.1391 233.5738  4.54368596116408
Epoch: 2025-10-23T22:55Z
TLE epoch observation values (Epoch: 2025-10-23T22:55:16.987Z)
Latitude
0.00005°
Longitude
177.4046°
Altitude
16,152.01 km
Speed
3.082 km/s
True Right ascension
12h 55m 19s
True Declination
0° 00' 00"
Sunlit
Object was in daylight at epoch
Visualization orbit readout
Latitude
Unknown
Longitude
Unknown
Altitude
Unknown
Speed
Unknown
Apparent Right ascension
Unknown
Apparent Declination
Unknown
Sunlit
N/A
Visualization observer readout
Local Sidereal Time
06:35:13
Azimuth
Unknown
Elevation
Unknown
Doppler factor
Unknown
Orbital elements
Apogee altitude
17,727.576 km
Perigee altitude
320.805 km
Semi-major axis
15,402.327 km
Eccentricity
0.56507
Inclination
17.9847°
RAAN
193.8291°
Arg. of periapsis
161.1391°
True anomaly
198.87548°
Mean anomaly
233.5738°
Eccentric anomaly
215.00248°
Mean motion
1.13544 °/min
Orbital period
317.06 mins
BSTAR
0.0079781
Loading maneuver chart data...
Computing Atmospheric mass density...
Loading historical data...
Loading historical data...
Loading historical data...
Loading historical data...
Loading historical data...
Loading historical data...
Loading historical data...

Documentation

Showing up to 5 results
|